CAPE
0 0 0 0 0 0 0 0 0 0 0 0 0 0 0 0 0 0 0 0 0 0 0 0 0 0 0 0 0 0 0 0 0 1 3 2 2 1 1 1 0 1 0
0 0 0 0 0 0 0 0 0 0 0 0 0 0 0 0 0 0 0 0 0 0 0 0 0 0 0 0 0 0 0 0 0 0 1 2 2 1 1 0 0 0 0
0 0 0 0 0 0 0 0 0 0 0 0 0 0 0 0 0 0 0 0 0 0 0 0 0 0 0 0 0 0 0 0 0 0 0 3 2 1 0 0 0 0 0
0 0 0 0 0 0 0 0 0 0 0 0 0 0 0 0 0 0 0 0 0 0 0 0 0 0 0 0 0 0 0 0 1 2 0 0 0 0 0 0 0 0 0
0 0 0 0 0 0 0 0 0 0 0 0 0 0 0 0 0 0 0 0 0 0 0 0 0 0 0 0 0 0 0 0 0 0 0 0 0 0 0 0 0 0 0
1 0 0 0 0 0 0 0 0 0 0 0 0 0 0 0 0 0 0 0 0 0 0 0 0 0 0 0 0 0 0 0 0 0 0 0 0 0 0 0 0 0 0
1 1 0 0 0 0 0 0 0 0 0 0 0 0 0 0 0 0 0 0 0 0 0 0 0 0 0 0 0 0 0 0 0 0 0 0 0 0 0 0 0 0 0
2 0 0 0 0 0 0 0 0 0 0 0 0 0 0 0 0 0 0 0 0 0 0 0 0 0 0 0 0 0 0 0 0 0 0 0 0 0 0 0 0 0 0
0 0 0 0 0 0 0 0 0 0 0 0 0 0 0 0 0 0 0 0 0 0 0 0 0 0 0 0 0 0 0 0 0 0 0 0 0 0 0 0 0 0 0
0 0 0 0 0 0 0 0 0 0 0 0 0 0 0 0 0 0 0 0 0 0 0 0 0 0 0 0 0 0 0 0 0 0 0 0 0 0 0 0 0 0 1
0 0 0 0 0 0 0 0 0 0 0 0 0 0 0 0 0 0 0 0 0 0 0 0 0 0 0 0 0 0 0 0 0 0 0 0 0 0 0 0 0 0 0
0 0 0 0 0 0 0 0 0 0 0 0 0 0 0 0 0 0 0 0 0 0 0 0 0 0 0 0 0 0 0 0 0 0 0 0 0 0 0 0 0 0 0
0 0 0 0 0 0 0 0 0 0 0 0 0 0 0 0 0 0 0 0 0 0 0 0 0 0 0 0 0 0 0 0 0 0 0 0 0 0 0 0 1 1 0
0 0 0 0 0 0 0 0 0 0 0 0 0 0 0 0 0 0 0 0 0 0 0 0 0 0 0 0 0 0 0 0 0 0 0 0 1 1 0 1 0 1 0
0 0 0 0 0 0 0 0 0 0 0 0 0 0 0 0 0 0 0 0 0 0 0 0 0 0 0 0 0 0 0 0 0 0 0 0 0 0 0 2 2 0 1
0 0 0 0 0 0 0 0 0 0 0 0 0 0 0 0 0 0 0 0 0 0 0 0 0 0 0 0 0 0 0 0 0 0 0 0 0 1 0 2 2 1 0
0 0 0 0 0 0 0 0 0 0 0 0 0 0 0 0 0 0 0 0 0 0 0 0 0 0 0 0 0 0 0 0 1 0 0 0 1 0 0 1 0 1 1
0 0 0 0 0 0 0 0 1 0 0 0 0 0 0 0 0 0 0 2 1 1 0 0 0 0 0 0 0 0 0 0 0 0 1 1 0 0 0 0 0 0 0
0 0 0 0 0 0 0 0 1 1 0 0 0 0 0 0 0 0 0 0 0 0 0 0 0 0 0 0 0 0 0 0 0 0 0 0 1 1 0 0 1 1 1
0 0 0 0 0 0 0 0 1 3 3 2 0 0 0 0 0 0 4 2 0 0 0 0 0 0 0 0 0 0 0 0 0 2 1 1 0 0 0 0 0 0 0
0 0 0 0 0 0 0 0 1 2 2 3 4 2 0 0 0 0 0 1 0 0 0 0 0 0 0 0 0 1 1 0 0 0 1 0 0 1 0 1 1 1 1
0 0 0 0 0 0 1 3 1 1 2 2 3 2 2 2 1 0 0 0 0 1 0 0 0 0 0 0 0 0 0 0 0 0 0 1 1 1 1 1 1 1 1
0 0 2 2 1 0 0 1 1 1 1 1 2 3 3 2 1 1 0 1 1 0 0 0 0 1 2 2 3 1 0 0 1 1 1 1 1 0 1 0 0 0 2
0 0 3 1 0 0 1 1 1 1 1 1 2 2 3 3 1 0 0 1 0 1 1 1 1 1 2 0 0 1 0 0 0 0 0 0 0 0 0 1 0 0 1
1 1 1 2 1 0 0 1 1 1 1 1 2 2 2 1 1 1 1 1 1 1 3 3 3 1 1 0 0 0 0 0 0 0 0 0 1 1 0 1 1 0 0
1 1 2 1 1 0 1 1 1 1 1 1 1 2 1 1 2 2 1 1 3 4 5 3 2 1 0 0 0 0 0 0 0 0 0 0 0 0 0 0 0 0 0
CIN
-0 -0 -0 -0 -0 -0 -0 -0 -0 -0 -0 -0 -0 -0 -0 -0 -0 -0 -0 -0 -0 -0 -0 -0 -0 -0 -0 -0 -0 -0 -0 -0 -0 -0 -0 -0 -0 -0 -0 -0 -0 -0 -0
-0 -0 -0 -0 -0 -0 -0 -0 -0 -0 -0 -0 -0 -0 -0 -0 -0 -0 -0 -0 -0 -0 -0 -0 -0 -0 -0 -0 -0 -0 -0 -0 -0 -0 -0 -0 -0 -0 -0 -0 -0 -0 -0
-0 -0 -0 -0 -0 -0 -0 -0 -0 -0 -0 -0 -0 -0 -0 -0 -0 -0 -0 -0 -0 -0 -0 -0 -0 -0 -0 -0 -0 -0 -0 -0 -0 -0 -0 -0 -0 -0 -0 -0 -0 -0 -0
-0 -0 -0 -0 -0 -0 -0 -0 -0 -0 -0 -0 -0 -0 -0 -0 -0 -0 -0 -0 -0 -0 -0 -0 -0 -0 -0 -0 -0 -0 -0 -0 -0 -0 -0 -0 -0 -0 -0 -0 -0 -0 -0
-0 -0 -0 -0 -0 -0 -0 -0 -0 -0 -0 -0 -0 -0 -0 -0 -0 -0 -0 -0 -0 -0 -0 -0 -0 -0 -0 -0 -0 -0 -0 -0 -0 -0 -0 -0 -0 -0 -0 -0 -0 -0 -0
-0 -0 -0 -0 -0 -0 -0 -0 -0 -0 -0 -0 -0 -0 -0 -0 -0 -0 -0 -0 -0 -0 -0 -0 -0 -0 -0 -0 -0 -0 -0 -0 -0 -0 -0 -0 -0 -0 -0 -0 -0 -0 -0
-0 -0 -0 -0 -0 -0 -0 -0 -0 -0 -0 -0 -0 -0 -0 -0 -0 -0 -0 -0 -0 -0 -0 -0 -0 -0 -0 -0 -0 -0 -0 -0 -0 -0 -0 -0 -0 -0 -0 -0 -0 -0 -0
-0 -0 -0 -0 -0 -0 -0 -0 -0 -0 -0 -0 -0 -0 -0 -0 -0 -0 -0 -0 -3 -0 -0 -0 -0 -0 -0 -0 -0 -0 -0 -0 -0 -0 -0 -0 -0 -0 -0 -0 -0 -0 -0
-0 -0 -0 -0 -0 -0 -0 -0 -0 -0 -0 -0 -0 -0 -0 -0 -0 -0 -0 -0 -0 -0 -0 -0 -0 -0 -0 -0 -0 -0 -0 -0 -0 -0 -0 -0 -0 -0 -0 -0 -0 -0 -0
-0 -0 -0 -0 -0 -0 -0 -0 -0 -0 -0 -0 -0 -0 -0 -0 -0 -0 -0 -0 -0 -0 -0 -0 -0 -0 -0 -0 -0 -0 -0 -0 -0 -0 -0 -0 -0 -0 -0 -0 -0 -0 -0
-0 -0 -0 -0 -0 -0 -0 -0 -0 -0 -0 -0 -0 -0 -0 -0 -0 -0 -0 -0 -0 -0 -0 -0 -0 -0 -0 -0 -0 -0 -0 -0 -0 -0 -0 -0 -0 -0 -0 -0 -0 -0 -0
-0 -0 -0 -0 -0 -0 -0 -0 -0 -0 -0 -0 -0 -0 -0 -0 -0 -0 -0 -0 -0 -0 -0 -0 -0 -0 -0 -0 -0 -0 -0 -0 -0 -0 -0 -0 -0 -0 -0 -0 -0 -0 -0
-0 -0 -0 -0 -0 -0 -0 -0 -0 -0 -0 -0 -0 -0 -0 -0 -0 -0 -0 -0 -0 -0 -0 -0 -0 -0 -0 -0 -0 -0 -0 -0 -0 -0 -0 -0 -0 -0 -0 -0 -0 -0 -0
-0 -0 -0 -0 -0 -0 -0 -0 -0 -0 -0 -0 -0 -0 -0 -0 -0 -0 -0 -0 -0 -0 -0 -0 -0 -0 -0 -0 -0 -0 -0 -0 -0 -0 -0 -0 -0 -0 -0 -0 -0 -0 -0
-0 -0 -0 -0 -0 -0 -0 -0 -0 -0 -0 -0 -0 -0 -0 -0 -0 -0 -0 -0 -0 -0 -0 -0 -0 -0 -0 -0 -0 -0 -0 -0 -0 -0 -0 -0 -0 -0 -0 -0 -0 -0 -0
-0 -0 -0 -0 -0 -0 -0 -0 -0 -0 -0 -0 -0 -0 -0 -0 -0 -0 -0 -0 -0 -0 -0 -0 -0 -0 -0 -0 -0 -0 -0 -0 -0 -0 -0 -0 -0 -0 -0 -0 -0 -0 -0
-0 -0 -0 -0 -0 -0 -0 -0 -0 -0 -0 -0 -0 -0 -0 -0 -0 -0 -0 -0 -0 -0 -0 -0 -0 -0 -0 -0 -0 -0 -0 -0 -0 -0 -0 -0 -0 -0 -0 -0 -0 -0 -0
-0 -0 -0 -0 -0 -0 -0 -0 -0 -0 -0 -0 -0 -0 -0 -0 -0 -0 -0 -0 -0 -0 -0 -0 -0 -0 -0 -0 -0 -0 -0 -0 -0 -0 -0 -0 -0 -0 -0 -0 -0 -0 -0
-0 -0 -0 -0 -0 -0 -0 -0 -0 -0 -0 -0 -0 -0 -0 -0 -0 -0 -0 -0 -0 -0 -0 -0 -0 -0 -0 -0 -0 -0 -0 -0 -0 -0 -0 -0 -0 -0 -0 -0 -0 -0 -0
-0 -0 -0 -0 -0 -0 -0 -0 -0 -0 -0 -0 -0 -0 -0 -0 -0 -0 -0 -0 -0 -0 -0 -0 -0 -0 -0 -0 -0 -0 -0 -0 -0 -0 -0 -0 -0 -0 -0 -0 -0 -0 -0
-0 -0 -0 -0 -0 -0 -0 -0 -0 -0 -0 -0 -0 -0 -0 -0 -0 -0 -0 -0 -0 -0 -0 -0 -0 -0 -0 -0 -0 -0 -0 -0 -0 -0 -0 -0 -0 -0 -0 -0 -0 -0 -0
-0 -0 -0 -0 -0 -0 -0 -0 -0 -0 -0 -0 -0 -0 -0 -0 -0 -0 -0 -0 -0 -0 -0 -0 -0 -0 -0 -0 -0 -0 -0 -0 -0 -0 -0 -0 -0 -0 -0 -0 -0 -0 -0
-0 -0 -0 -0 -0 -0 -0 -0 -0 -0 -0 -0 -0 -0 -0 -0 -0 -0 -0 -0 -0 -0 -0 -0 -0 -0 -0 -0 -0 -0 -0 -0 -0 -0 -0 -0 -0 -0 -0 -0 -0 -0 -0
-0 -0 -0 -0 -0 -0 -0 -0 -0 -0 -0 -0 -0 -0 -0 -0 -0 -0 -0 -0 -0 -0 -0 -0 -0 -0 -0 -0 -0 -0 -0 -0 -0 -0 -0 -0 -0 -0 -0 -0 -0 -0 -0
-0 -0 -0 -0 -0 -0 -0 -0 -0 -0 -0 -0 -0 -0 -0 -0 -0 -0 -0 -0 -0 -0 -0 -0 -0 -0 -0 -0 -0 -0 -0 -0 -0 -0 -0 -0 -0 -0 -0 -0 -0 -0 -0
-0 -0 -0 -0 -0 -0 -0 -0 -0 -0 -0 -0 -0 -0 -0 -0 -0 -0 -0 -0 -0 -0 -0 -0 -0 -0 -0 -0 -0 -0 -0 -0 -0 -0 -0 -0 -0 -0 -0 -0 -0 -0 -0
Wind_Speed
21 19 18 17 16 14 12 9 7 5 4 3 2 3 5 6 7 8 9 10 11 13 14 15 17 17 13 8 9 10 10 11 11 8 9 9 10 11 11 12 13 15 16
20 19 19 18 17 15 13 10 8 7 5 4 2 2 4 5 6 6 8 9 10 11 14 15 16 16 14 9 9 10 10 11 10 11 7 9 10 10 10 11 13 14 15
20 20 19 19 18 17 15 12 10 8 7 5 4 3 3 4 5 5 6 7 8 10 13 14 14 15 13 11 9 10 11 11 10 9 8 7 9 9 9 10 12 14 14
21 21 21 20 19 18 15 13 11 10 8 7 5 3 2 2 2 3 5 6 7 8 10 11 12 13 12 10 9 9 10 10 9 8 7 7 8 7 7 7 9 13 12
21 21 21 20 19 18 16 15 13 11 9 7 6 5 3 2 1 3 4 5 6 6 7 8 9 10 10 10 9 9 9 9 9 9 7 7 7 7 5 6 7 11 11
22 22 21 21 20 19 17 15 13 11 10 9 8 6 5 3 2 2 2 3 3 4 6 6 7 8 8 10 8 9 9 9 8 8 8 6 4 5 6 5 7 8 6
20 20 20 19 19 18 17 16 15 13 12 11 10 8 6 5 3 2 1 1 2 4 5 6 7 7 7 8 7 7 7 7 7 6 6 6 7 4 5 4 3 5 5
21 20 19 19 19 18 17 16 16 15 14 14 12 10 8 8 5 2 2 0 1 3 5 6 6 7 8 6 5 4 5 5 6 7 10 8 10 7 4 5 5 6 11
20 21 20 19 19 18 17 17 17 16 16 15 13 12 11 9 6 4 2 1 1 1 2 4 4 5 6 7 5 4 3 4 9 10 12 12 10 8 7 9 8 8 7
15 17 17 18 18 18 18 18 19 19 18 17 16 14 13 10 8 6 4 2 2 0 1 1 2 3 6 7 5 4 5 2 4 7 12 11 10 10 7 9 10 10 11
13 14 15 17 18 19 19 19 19 20 19 18 16 15 13 12 10 8 6 4 3 2 1 1 0 2 4 6 4 4 4 3 4 6 7 10 10 9 9 9 10 11 9
11 13 15 16 18 19 19 21 21 20 19 18 17 17 16 14 11 10 8 7 5 3 3 1 1 0 1 3 4 2 2 4 4 4 5 5 6 7 8 9 7 10 10
15 15 14 15 17 18 19 20 21 21 20 19 18 18 17 16 15 12 10 9 7 5 4 2 0 1 1 1 2 1 2 2 3 3 4 5 5 8 10 11 11 10 10
18 18 18 17 17 18 20 22 22 22 22 21 20 19 18 17 17 16 14 12 10 8 6 5 4 4 3 3 3 1 2 2 1 2 3 6 8 9 9 10 11 10 11
23 22 21 20 20 21 22 23 25 28 25 22 22 21 19 20 19 18 16 14 12 10 7 8 8 6 5 5 4 3 3 3 3 3 5 5 5 7 8 9 10 10 9
24 24 25 24 23 23 24 25 27 28 27 26 24 22 22 23 19 18 16 15 13 11 11 10 8 7 6 5 5 5 5 4 4 3 3 3 5 6 7 11 11 9 8
27 26 26 26 26 26 26 27 26 27 28 29 28 25 24 22 20 19 18 16 15 13 13 12 10 9 7 6 5 4 4 4 2 3 4 4 5 7 7 9 11 12 11
31 29 28 28 27 28 29 29 28 27 28 29 29 27 26 23 21 20 19 17 16 16 15 13 12 10 8 7 6 5 4 2 2 2 2 3 4 6 9 9 9 11 12
32 32 30 29 29 28 28 29 29 29 29 28 27 26 25 24 23 21 21 20 19 17 15 14 12 10 10 9 8 6 5 4 3 2 2 2 3 5 7 7 8 9 11
34 33 32 32 31 30 30 30 29 30 30 29 28 27 25 24 25 23 22 23 21 20 18 15 12 10 9 8 7 6 5 4 3 2 2 2 3 4 6 6 7 8 11
37 35 34 33 33 33 33 33 32 32 31 31 30 28 26 26 26 26 24 24 23 21 18 16 13 11 9 8 7 6 5 4 3 2 1 2 3 5 6 7 8 11 12
37 37 35 35 34 34 34 34 34 34 34 32 30 29 27 29 28 27 25 24 22 20 18 15 13 12 10 9 8 7 6 5 3 2 1 2 4 5 6 8 10 12 12
39 40 39 39 36 35 35 35 35 35 34 33 31 29 29 29 29 28 26 24 22 20 18 17 15 13 10 9 7 7 7 6 3 2 3 4 5 6 7 8 9 10 11
40 41 42 41 40 39 38 37 35 36 34 34 32 31 30 29 29 28 26 24 22 21 18 16 15 13 10 8 7 6 5 5 4 4 3 4 6 6 6 7 7 8 9
40 40 41 42 41 41 40 39 38 35 34 33 32 31 29 29 28 26 25 23 22 20 19 17 15 12 11 9 7 6 5 6 6 5 6 6 4 3 4 6 8 9 10
37 38 39 40 41 41 40 39 38 36 35 32 30 31 29 28 27 26 24 23 22 20 18 17 15 13 10 9 8 7 7 7 7 6 4 2 3 3 4 5 7 8 9
Wind_Direction
217 216 214 213 215 217 219 223 221 213 198 181 135 97 81 70 58 53 49 55 61 62 73 85 98 103 90 51 25 35 44 3 72 56 50 38 16 31 28 24 24 27 27
217 217 218 217 218 219 221 221 221 214 210 192 172 124 94 70 59 59 57 62 70 76 84 94 102 103 96 67 41 29 16 34 67 84 49 57 55 28 27 33 22 16 13
218 218 219 220 219 220 222 223 220 219 217 210 194 154 120 88 74 57 61 66 73 84 93 100 104 106 101 81 38 29 18 36 53 72 59 21 54 67 41 28 15 7 3
224 222 220 219 220 222 223 223 221 219 214 208 192 184 155 110 71 54 67 73 76 87 95 96 107 112 106 94 59 37 30 42 49 57 31 30 20 29 37 32 18 360 360
225 224 224 223 223 224 224 226 226 223 216 204 204 203 194 169 105 87 81 84 87 94 95 98 101 106 103 96 77 62 60 56 65 65 42 11 20 48 82 48 20 360 1
230 228 227 225 224 224 224 224 223 220 218 218 216 213 194 239 165 99 67 78 84 98 109 103 101 105 106 106 90 82 72 72 74 66 56 53 65 60 67 41 5 360 30
230 229 227 225 224 223 222 222 221 221 221 220 222 220 218 239 183 138 35 44 90 109 110 113 109 110 111 105 90 76 72 64 60 67 63 54 18 68 46 30 22 359 360
232 230 229 226 225 225 223 222 222 223 221 222 223 221 230 240 199 199 140 39 82 101 119 120 120 121 120 113 92 74 69 49 20 24 350 11 2 46 68 17 354 348 346
234 234 232 229 227 224 223 222 225 222 223 226 224 227 230 232 204 200 207 243 125 112 102 117 126 131 133 130 118 106 79 36 346 348 343 350 359 10 26 7 359 353 346
237 236 233 231 227 225 224 226 228 227 228 229 229 231 232 227 213 203 222 230 173 177 52 83 122 130 140 145 143 143 150 105 3 350 335 352 359 357 15 7 354 347 345
245 242 238 236 233 231 230 229 225 227 227 228 226 232 231 232 217 204 204 218 208 183 148 86 19 123 135 152 148 144 142 14 356 346 346 346 354 359 357 354 352 350 352
255 249 244 240 239 236 231 231 227 225 224 226 228 232 237 237 226 214 215 225 222 199 181 171 7 79 98 140 153 138 77 8 10 6 354 349 351 352 352 353 354 348 350
257 254 251 246 242 238 232 229 227 229 228 227 228 230 230 235 237 224 213 224 219 239 248 242 219 43 9 17 130 113 91 24 2 345 333 336 342 350 349 354 352 353 345
257 258 254 250 246 242 239 234 231 231 232 231 228 229 233 233 236 237 235 235 236 244 254 270 285 306 321 322 317 280 283 296 301 312 336 348 352 354 352 349 352 353 346
259 258 258 255 250 247 245 240 239 240 238 233 235 234 230 232 234 233 229 230 234 235 247 269 277 290 294 296 294 285 294 294 288 315 331 348 354 356 354 357 352 352 351
261 260 258 256 254 252 249 249 249 248 245 245 244 239 243 248 235 228 228 228 226 221 250 250 253 261 269 272 273 276 284 284 294 307 317 329 336 345 350 351 348 351 347
264 263 262 258 256 254 252 250 249 252 251 248 248 246 245 244 237 229 227 227 225 227 241 243 249 254 259 260 249 244 252 244 258 281 302 310 322 333 338 345 343 339 342
264 265 264 262 260 257 255 253 252 250 248 248 250 248 248 245 241 234 228 229 234 236 243 244 248 253 256 255 246 234 226 242 228 229 281 312 325 331 334 336 342 339 340
265 264 265 265 263 261 257 255 254 252 251 250 249 248 247 245 242 237 224 230 227 230 238 238 245 248 252 253 247 244 239 233 229 244 258 294 324 329 341 349 350 350 341
264 265 265 266 265 261 259 257 255 254 252 250 248 246 243 243 241 236 232 240 241 243 247 242 246 249 251 249 241 241 240 242 243 233 290 315 321 328 334 346 343 338 332
262 264 265 266 264 262 260 258 257 255 253 252 250 247 240 238 239 238 235 240 242 245 245 242 244 247 253 250 248 236 221 208 205 228 297 315 316 322 332 336 336 331 327
262 263 264 264 264 263 262 260 258 257 255 253 252 249 241 244 244 241 240 241 241 245 248 244 241 245 248 240 234 226 213 205 206 221 256 299 317 325 332 331 331 326 326
259 261 261 262 264 264 262 261 259 257 256 254 252 249 243 242 245 244 242 242 241 243 248 246 246 251 251 249 242 225 206 205 214 264 288 303 314 320 326 325 327 325 325
259 259 260 261 262 261 260 260 261 258 257 254 251 249 246 243 242 241 242 241 241 242 243 240 240 236 238 238 242 244 241 254 271 290 298 304 312 317 325 324 327 327 329
259 260 260 259 260 260 260 259 259 258 256 255 252 249 246 244 241 238 237 237 236 236 237 236 234 228 226 225 228 234 248 264 278 292 304 311 312 327 321 320 318 322 326
262 262 261 260 259 258 258 258 258 257 255 254 252 249 245 241 239 235 232 232 232 233 229 230 225 219 217 227 235 246 254 267 280 291 302 311 308 313 312 311 317 327 330